GLP105 ULLI-UEEE

Flight info

Callsign GLP105
Flight time 6h 3m
Altitude 33000
Route RELNI T693 DISUP T821 ARGIP M58 RIGNI L168 SORIL/K0833F350 L168 NRM M131 ULKAM T413 BANEP B243 LUSOT/K0830F370 B243 NIPEK W19 TINUT
Aircraft B738/M-SDE2E3FGHIRWXY/LB1

Departure

Time 2026-04-17 03:34
Airport Pulkovo Airport (ULLI)

Arrival

Time 2026-04-17 09:38
Airport Platon Oyunsky Yakutsk International Airport (UEEE)
Time Latitude Longitude Altitude Speed Heading
2026-04-17 02:48 59.79893 30.26695 83 ft 0 kts 111°
2026-04-17 03:20 59.79894 30.26690 80 ft 3 kts 111°
2026-04-17 03:21 59.79901 30.26641 84 ft 4 kts 93°
2026-04-17 03:21 59.79896 30.26594 83 ft 4 kts 47°
2026-04-17 03:21 59.79885 30.26578 85 ft 1 kts 17°
2026-04-17 03:21 59.79883 30.26577 85 ft 0 kts 17°
2026-04-17 03:25 59.79890 30.26581 84 ft 3 kts 16°
2026-04-17 03:25 59.79921 30.26599 80 ft 7 kts 16°
2026-04-17 03:25 59.79978 30.26633 81 ft 10 kts 16°
2026-04-17 03:25 59.80050 30.26675 84 ft 12 kts 17°
2026-04-17 03:26 59.80133 30.26724 83 ft 13 kts 17°
2026-04-17 03:26 59.80222 30.26777 84 ft 13 kts 17°
2026-04-17 03:26 59.80309 30.26828 82 ft 13 kts 17°
2026-04-17 03:26 59.80374 30.26862 79 ft 8 kts
2026-04-17 03:27 59.80406 30.26782 83 ft 8 kts 289°
2026-04-17 03:27 59.80426 30.26653 80 ft 11 kts 287°
2026-04-17 03:27 59.80450 30.26497 81 ft 13 kts 286°
2026-04-17 03:27 59.80475 30.26330 82 ft 12 kts 287°
2026-04-17 03:28 59.80498 30.26178 79 ft 11 kts 286°
2026-04-17 03:28 59.80518 30.26041 74 ft 10 kts 287°
2026-04-17 03:28 59.80538 30.25911 69 ft 10 kts 287°
2026-04-17 03:28 59.80558 30.25776 76 ft 10 kts 287°
2026-04-17 03:29 59.80579 30.25630 66 ft 12 kts 284°
2026-04-17 03:29 59.80604 30.25470 72 ft 13 kts 287°
2026-04-17 03:29 59.80631 30.25295 72 ft 13 kts 287°
2026-04-17 03:29 59.80656 30.25124 70 ft 12 kts 286°
2026-04-17 03:30 59.80679 30.24969 63 ft 11 kts 287°
2026-04-17 03:30 59.80700 30.24830 67 ft 10 kts 286°
2026-04-17 03:30 59.80719 30.24706 66 ft 9 kts 288°
2026-04-17 03:30 59.80754 30.24625 65 ft 7 kts 336°
2026-04-17 03:31 59.80799 30.24600 63 ft 6 kts 346°
2026-04-17 03:31 59.80824 30.24588 59 ft 0 kts 346°
2026-04-17 03:32 59.80829 30.24585 63 ft 2 kts 346°
2026-04-17 03:32 59.80860 30.24570 66 ft 7 kts 348°
2026-04-17 03:32 59.80922 30.24559 64 ft 10 kts
2026-04-17 03:32 59.80956 30.24656 67 ft 9 kts 94°
2026-04-17 03:33 59.80947 30.24734 64 ft 1 kts 106°
2026-04-17 03:33 59.80945 30.24743 66 ft 3 kts 106°
2026-04-17 03:33 59.80926 30.24874 69 ft 30 kts 107°
2026-04-17 03:33 59.80787 30.25804 72 ft 108 kts 106°
2026-04-17 03:34 59.80515 30.27669 83 ft 172 kts 104°
2026-04-17 03:34 59.80114 30.30220 385 ft 196 kts 108°
2026-04-17 03:34 59.79646 30.32775 915 ft 202 kts 106°
2026-04-17 03:34 59.79237 30.35504 1179 ft 212 kts 102°
2026-04-17 03:35 59.78854 30.38278 1689 ft 198 kts 101°
2026-04-17 03:35 59.78482 30.40900 2143 ft 205 kts 101°
2026-04-17 03:35 59.78088 30.43696 2402 ft 218 kts 101°
2026-04-17 03:35 59.77665 30.46647 2783 ft 231 kts 101°
2026-04-17 03:36 59.76709 30.53092 3724 ft 250 kts 102°
2026-04-17 03:36 59.76571 30.56498 4272 ft 250 kts 76°
2026-04-17 03:36 59.77222 30.59691 4828 ft 253 kts 54°
2026-04-17 03:37 59.78314 30.62484 5383 ft 258 kts 50°
2026-04-17 03:37 59.79471 30.65217 6028 ft 260 kts 49°
2026-04-17 03:37 59.80648 30.67975 6623 ft 264 kts 49°
2026-04-17 03:37 59.81838 30.70771 7246 ft 264 kts 50°
2026-04-17 03:38 59.83034 30.73599 7803 ft 268 kts 50°
2026-04-17 03:38 59.84229 30.76438 8416 ft 270 kts 50°
2026-04-17 03:38 59.85422 30.79285 9009 ft 271 kts 50°
2026-04-17 03:38 59.86637 30.82195 9576 ft 275 kts 50°
2026-04-17 03:39 59.87867 30.85149 10115 ft 278 kts 50°
2026-04-17 03:39 59.89112 30.88144 10449 ft 290 kts 50°
2026-04-17 03:39 59.90442 30.91352 10569 ft 308 kts 50°
2026-04-17 03:39 59.91841 30.94732 10695 ft 326 kts 50°
2026-04-17 03:40 59.93321 30.98312 10835 ft 342 kts 50°
2026-04-17 03:40 59.94854 31.02029 11104 ft 352 kts 50°
2026-04-17 03:40 59.96426 31.05847 11552 ft 357 kts 50°
2026-04-17 03:40 59.98016 31.09717 11942 ft 364 kts 50°
2026-04-17 03:41 59.99620 31.13629 12599 ft 363 kts 50°
2026-04-17 03:41 60.01228 31.17556 13108 ft 367 kts 50°
2026-04-17 03:41 60.02854 31.21536 13647 ft 370 kts 50°
2026-04-17 03:41 60.04488 31.25541 14193 ft 373 kts 50°
2026-04-17 03:42 60.06110 31.29525 14699 ft 375 kts 50°
2026-04-17 03:42 60.07765 31.33598 15043 ft 378 kts 50°
2026-04-17 03:42 60.09419 31.37675 15049 ft 377 kts 50°
2026-04-17 03:42 60.11081 31.41776 15063 ft 379 kts 50°
2026-04-17 03:43 60.12743 31.45883 15067 ft 379 kts 50°
2026-04-17 03:43 60.14479 31.49853 15054 ft 378 kts 40°
2026-04-17 03:43 60.16696 31.52683 15180 ft 382 kts 24°
2026-04-17 03:43 60.19153 31.54789 15733 ft 383 kts 22°
2026-04-17 03:44 60.21620 31.56842 16343 ft 383 kts 22°
2026-04-17 03:44 60.24095 31.58902 16854 ft 386 kts 22°
2026-04-17 03:44 60.26549 31.60964 17330 ft 389 kts 22°
2026-04-17 03:44 60.29054 31.63089 17825 ft 392 kts 22°
2026-04-17 03:45 60.31578 31.65249 18321 ft 395 kts 22°
2026-04-17 03:45 60.34115 31.67433 18745 ft 397 kts 22°
2026-04-17 03:45 60.36669 31.69640 19183 ft 399 kts 22°
2026-04-17 03:45 60.39236 31.71864 19612 ft 401 kts 22°
2026-04-17 03:46 60.41809 31.74098 20035 ft 403 kts 22°
2026-04-17 03:46 60.43520 31.75586 20311 ft 405 kts 22°
2026-04-17 03:46 60.46965 31.78585 20858 ft 408 kts 22°
2026-04-17 03:46 60.49579 31.80867 21274 ft 410 kts 22°
2026-04-17 03:47 60.52204 31.83162 21669 ft 412 kts 22°
2026-04-17 03:47 60.54840 31.85470 22044 ft 414 kts 22°
2026-04-17 03:47 60.56602 31.87016 22311 ft 416 kts 22°
2026-04-17 03:47 60.59268 31.89360 22676 ft 418 kts 22°
2026-04-17 03:48 60.61948 31.91719 23041 ft 420 kts 22°
2026-04-17 03:48 60.64640 31.94091 23392 ft 423 kts 22°
2026-04-17 03:48 60.67346 31.96478 23716 ft 425 kts 22°
2026-04-17 03:48 60.70124 31.98563 23998 ft 426 kts 14°
2026-04-17 03:49 60.73032 31.99794 24312 ft 427 kts
2026-04-17 03:49 60.75994 32.00132 24627 ft 427 kts
2026-04-17 03:49 60.78973 32.00282 24931 ft 429 kts
2026-04-17 03:49 60.81964 32.00430 25224 ft 430 kts
2026-04-17 03:50 60.84963 32.00615 25511 ft 432 kts
2026-04-17 03:50 60.87971 32.00834 25788 ft 433 kts
2026-04-17 03:50 60.90984 32.01068 26077 ft 434 kts
2026-04-17 03:50 60.93999 32.01586 26327 ft 436 kts 10°
2026-04-17 03:51 60.96864 32.03448 26585 ft 439 kts 22°
2026-04-17 03:51 60.99543 32.06504 26858 ft 443 kts 33°
2026-04-17 03:51 61.01881 32.10695 27104 ft 447 kts 41°
2026-04-17 03:51 61.04103 32.15228 27358 ft 449 kts 42°
2026-04-17 03:52 61.06311 32.19805 27633 ft 449 kts 42°
2026-04-17 03:52 61.08518 32.24366 27976 ft 448 kts 42°
2026-04-17 03:52 61.10723 32.28886 28373 ft 445 kts 41°
2026-04-17 03:52 61.12927 32.33374 28763 ft 443 kts 41°
2026-04-17 03:53 61.15104 32.37792 29089 ft 443 kts 41°
2026-04-17 03:53 61.17304 32.42255 29391 ft 442 kts 41°
2026-04-17 03:53 61.19503 32.46726 29727 ft 441 kts 41°
2026-04-17 03:53 61.21689 32.51183 30080 ft 440 kts 41°
2026-04-17 03:54 61.23868 32.55634 30371 ft 439 kts 41°
2026-04-17 03:54 61.26047 32.60092 30575 ft 440 kts 41°
2026-04-17 03:54 61.28236 32.64545 30754 ft 441 kts 40°
2026-04-17 03:54 61.30451 32.68954 30983 ft 441 kts 40°
2026-04-17 03:55 61.32677 32.73350 31217 ft 441 kts 40°
2026-04-17 03:55 61.34901 32.77747 31418 ft 441 kts 40°
2026-04-17 03:55 61.37130 32.82174 31616 ft 442 kts 40°
2026-04-17 03:55 61.39322 32.86551 31837 ft 442 kts 40°
2026-04-17 03:56 61.41547 32.91011 32049 ft 442 kts 40°
2026-04-17 03:56 61.43762 32.95458 32257 ft 442 kts 40°
2026-04-17 03:56 61.45980 32.99920 32441 ft 442 kts 40°
2026-04-17 03:56 61.48151 33.04495 32631 ft 445 kts 45°
2026-04-17 03:57 61.50128 33.09524 32832 ft 446 kts 48°
2026-04-17 03:57 61.52026 33.14673 33030 ft 447 kts 49°
2026-04-17 03:57 61.53910 33.19884 33118 ft 449 kts 49°
2026-04-17 03:58 61.57689 33.30311 33134 ft 454 kts 49°
2026-04-17 03:58 61.61565 33.40901 33133 ft 459 kts 49°
2026-04-17 03:59 61.65483 33.51583 33133 ft 463 kts 49°
2026-04-17 03:59 61.69398 33.62303 33126 ft 465 kts 49°
2026-04-17 04:00 61.73348 33.73175 33116 ft 467 kts 49°
2026-04-17 04:00 61.77295 33.84095 33108 ft 468 kts 49°
2026-04-17 04:01 61.81239 33.95059 33108 ft 468 kts 51°
2026-04-17 04:01 61.85152 34.05990 33099 ft 464 kts 48°
2026-04-17 04:02 61.89173 34.16685 33093 ft 459 kts 40°
2026-04-17 04:02 61.93936 34.25394 33106 ft 455 kts 34°
2026-04-17 04:03 61.98846 34.33924 33112 ft 455 kts 34°
2026-04-17 04:03 62.03728 34.42554 33118 ft 456 kts 35°
2026-04-17 04:04 62.08566 34.51239 33100 ft 457 kts 35°
2026-04-17 04:04 62.13425 34.60026 33127 ft 458 kts 35°
2026-04-17 04:05 62.18301 34.68880 33109 ft 460 kts 35°
2026-04-17 04:05 62.23187 34.77787 33121 ft 461 kts 35°
2026-04-17 04:06 62.28050 34.86692 33117 ft 462 kts 35°
2026-04-17 04:06 62.32947 34.95701 33123 ft 463 kts 35°
2026-04-17 04:07 62.37848 35.04756 33120 ft 465 kts 35°
2026-04-17 04:07 62.42746 35.13883 33128 ft 466 kts 36°
2026-04-17 04:08 62.47634 35.23150 33121 ft 467 kts 36°
2026-04-17 04:08 62.52519 35.32471 33134 ft 468 kts 36°
2026-04-17 04:09 62.57406 35.41826 33123 ft 469 kts 36°
2026-04-17 04:09 62.62301 35.51233 33133 ft 470 kts 36°
2026-04-17 04:10 62.67167 35.60625 33124 ft 471 kts 36°
2026-04-17 04:10 62.72072 35.70137 33137 ft 472 kts 36°
2026-04-17 04:11 62.76975 35.79692 33121 ft 473 kts 36°
2026-04-17 04:11 62.81859 35.89255 33147 ft 473 kts 36°
2026-04-17 04:12 62.86785 35.98940 33126 ft 474 kts 36°
2026-04-17 04:12 62.91671 36.08519 33148 ft 474 kts 36°
2026-04-17 04:13 62.96613 36.18152 33132 ft 474 kts 36°
2026-04-17 04:13 63.01534 36.27801 33144 ft 474 kts 36°
2026-04-17 04:14 63.06435 36.37477 33140 ft 475 kts 36°
2026-04-17 04:14 63.11352 36.47236 33152 ft 475 kts 36°
2026-04-17 04:15 63.16261 36.57023 33139 ft 475 kts 36°
2026-04-17 04:15 63.21157 36.66896 33150 ft 477 kts 39°
2026-04-17 04:16 63.25549 36.78102 33140 ft 483 kts 46°
2026-04-17 04:16 63.29754 36.89768 33157 ft 483 kts 46°
2026-04-17 04:17 63.33994 37.01357 33135 ft 484 kts 45°
2026-04-17 04:17 63.38251 37.12889 33151 ft 484 kts 45°
2026-04-17 04:18 63.42518 37.24510 33142 ft 485 kts 46°
2026-04-17 04:18 63.46787 37.36201 33146 ft 485 kts 46°
2026-04-17 04:19 63.51059 37.47960 33132 ft 486 kts 46°
2026-04-17 04:19 63.55311 37.59735 33143 ft 486 kts 46°
2026-04-17 04:20 63.59568 37.71585 33124 ft 487 kts 46°
2026-04-17 04:20 63.63822 37.83491 33143 ft 487 kts 46°
2026-04-17 04:21 63.68036 37.95348 33121 ft 488 kts 47°
2026-04-17 04:21 63.72269 38.07323 33132 ft 488 kts 47°
2026-04-17 04:22 63.76506 38.19373 33119 ft 489 kts 47°
2026-04-17 04:22 63.80720 38.31421 33129 ft 489 kts 47°
2026-04-17 04:23 63.84937 38.43544 33109 ft 489 kts 47°
2026-04-17 04:23 63.89118 38.55629 33126 ft 489 kts 47°
2026-04-17 04:24 63.93316 38.67831 33105 ft 490 kts 48°
2026-04-17 04:24 63.97508 38.80082 33123 ft 490 kts 48°
2026-04-17 04:25 64.01661 38.92288 33104 ft 490 kts 48°
2026-04-17 04:25 64.05838 39.04622 33121 ft 490 kts 48°
2026-04-17 04:26 64.09997 39.16967 33099 ft 491 kts 48°
2026-04-17 04:26 64.14131 39.29301 33118 ft 491 kts 49°
2026-04-17 04:27 64.18279 39.41754 33101 ft 491 kts 49°
2026-04-17 04:27 64.22422 39.54263 33110 ft 491 kts 49°
2026-04-17 04:28 64.26554 39.66814 33093 ft 492 kts 49°
2026-04-17 04:28 64.30647 39.79311 33106 ft 492 kts 49°
2026-04-17 04:29 64.34769 39.91966 33086 ft 493 kts 49°
2026-04-17 04:29 64.38862 40.04676 33092 ft 493 kts 50°
2026-04-17 04:30 64.42938 40.17425 33069 ft 493 kts 50°
2026-04-17 04:30 64.46995 40.30185 33086 ft 493 kts 50°
2026-04-17 04:31 64.51058 40.43032 33066 ft 494 kts 50°
2026-04-17 04:31 64.55091 40.55859 33081 ft 494 kts 50°
2026-04-17 04:32 64.59140 40.68798 33064 ft 494 kts 50°
2026-04-17 04:32 64.63563 40.80960 33081 ft 490 kts 43°
2026-04-17 04:33 64.68228 40.92607 33062 ft 490 kts 43°
2026-04-17 04:33 64.72836 41.04241 33079 ft 491 kts 43°
2026-04-17 04:34 64.79728 41.21988 33068 ft 491 kts 44°
2026-04-17 04:34 64.84314 41.33899 33063 ft 491 kts 44°
2026-04-17 04:35 64.88902 41.45865 33059 ft 491 kts 44°
2026-04-17 04:35 64.92705 41.55839 33062 ft 492 kts 44°
2026-04-17 04:36 64.97259 41.67872 33060 ft 492 kts 44°
2026-04-17 04:36 65.01801 41.80013 33068 ft 492 kts 44°
2026-04-17 04:37 65.06313 41.92168 33055 ft 492 kts 45°
2026-04-17 04:37 65.10795 42.04299 33060 ft 492 kts 45°
2026-04-17 04:38 65.15307 42.16579 33050 ft 492 kts 45°
2026-04-17 04:38 65.19801 42.28869 33062 ft 492 kts 45°
2026-04-17 04:39 65.24353 42.41003 33048 ft 491 kts 44°
2026-04-17 04:39 65.28943 42.53077 33061 ft 491 kts 44°
2026-04-17 04:40 65.33481 42.65158 33042 ft 491 kts 44°
2026-04-17 04:40 65.37905 42.77680 33049 ft 493 kts 49°
2026-04-17 04:41 65.42037 42.90835 33037 ft 493 kts 50°
2026-04-17 04:41 65.46153 43.04012 33043 ft 492 kts 49°
2026-04-17 04:42 65.48217 43.10554 33731 ft 490 kts 49°
2026-04-17 04:42 65.50268 43.17048 33423 ft 483 kts 50°
2026-04-17 04:42 65.52272 43.23411 33235 ft 477 kts 50°
2026-04-17 04:42 65.54268 43.29770 33140 ft 475 kts 50°
2026-04-17 04:43 65.58238 43.42484 33038 ft 474 kts 50°
2026-04-17 04:43 65.62181 43.55195 33038 ft 471 kts 50°
2026-04-17 04:44 65.66108 43.67927 33029 ft 471 kts 50°
2026-04-17 04:44 65.70025 43.80701 33031 ft 471 kts 50°
2026-04-17 04:45 65.73930 43.93510 33030 ft 472 kts 51°
2026-04-17 04:45 65.77814 44.06325 33024 ft 474 kts 51°
2026-04-17 04:46 65.81725 44.19304 33020 ft 474 kts 51°
2026-04-17 04:46 65.85601 44.32370 33012 ft 476 kts 52°
2026-04-17 04:47 65.89318 44.45661 33011 ft 476 kts 53°
2026-04-17 04:47 65.93022 44.59104 33017 ft 476 kts 53°
2026-04-17 04:48 65.96739 44.72588 33004 ft 476 kts 53°
2026-04-17 04:48 66.00440 44.86047 33001 ft 476 kts 53°
2026-04-17 04:49 66.04116 44.99490 32996 ft 475 kts 53°
2026-04-17 04:49 66.07785 45.12996 32984 ft 475 kts 53°
2026-04-17 04:50 66.11450 45.26566 32977 ft 474 kts 54°
2026-04-17 04:50 66.15094 45.40139 32976 ft 474 kts 54°
2026-04-17 04:51 66.18697 45.53637 32973 ft 473 kts 54°
2026-04-17 04:51 66.22308 45.67248 32970 ft 472 kts 54°
2026-04-17 04:52 66.25900 45.80879 32983 ft 472 kts 54°
2026-04-17 04:52 66.29484 45.94566 32967 ft 471 kts 54°
2026-04-17 04:53 66.33040 46.08233 32963 ft 471 kts 54°
2026-04-17 04:55 66.47125 46.63207 32953 ft 469 kts 55°
2026-04-17 04:55 66.50621 46.77064 32948 ft 469 kts 55°
2026-04-17 04:56 66.54087 46.90884 32947 ft 468 kts 55°
2026-04-17 04:56 66.57523 47.04685 32942 ft 468 kts 56°
2026-04-17 04:57 66.60955 47.18556 32938 ft 468 kts 55°
2026-04-17 04:57 66.64389 47.32524 32934 ft 467 kts 56°
2026-04-17 04:58 66.67799 47.46483 32931 ft 467 kts 56°
2026-04-17 04:58 66.71172 47.60377 32929 ft 467 kts 56°
2026-04-17 04:59 66.74561 47.74416 32923 ft 467 kts 57°
2026-04-17 04:59 66.77542 47.89031 32928 ft 468 kts 63°
2026-04-17 05:00 66.80242 48.04077 32915 ft 468 kts 63°
2026-04-17 05:00 66.82967 48.19074 32916 ft 468 kts 63°
2026-04-17 05:01 66.85728 48.34108 32952 ft 470 kts 63°
2026-04-17 05:01 66.87105 48.41651 33085 ft 470 kts 63°
2026-04-17 05:01 66.88458 48.49091 33263 ft 469 kts 63°
2026-04-17 05:02 66.89827 48.56637 33411 ft 469 kts 63°
2026-04-17 05:02 66.91193 48.64192 33524 ft 470 kts 63°
2026-04-17 05:02 66.92555 48.71758 33647 ft 470 kts 63°
2026-04-17 05:02 66.93918 48.79356 33796 ft 470 kts 63°
2026-04-17 05:03 66.95274 48.86951 33961 ft 469 kts 63°
2026-04-17 05:03 66.96621 48.94525 34137 ft 468 kts 63°
2026-04-17 05:03 66.97964 49.02108 34320 ft 467 kts 63°
2026-04-17 05:03 66.99298 49.09665 34495 ft 466 kts 63°
2026-04-17 05:04 67.00629 49.17235 34685 ft 465 kts 63°
2026-04-17 05:04 67.01946 49.24755 34873 ft 463 kts 64°
2026-04-17 05:04 67.04573 49.39836 34915 ft 463 kts 64°
2026-04-17 05:05 67.07155 49.54774 34907 ft 459 kts 64°
2026-04-17 05:05 67.09721 49.69735 34928 ft 456 kts 64°
2026-04-17 05:06 67.12248 49.84571 34908 ft 454 kts 64°
2026-04-17 05:06 67.14776 49.99532 34920 ft 453 kts 64°
2026-04-17 05:07 67.17260 50.14340 34918 ft 453 kts 64°
2026-04-17 05:07 67.19752 50.29309 34928 ft 455 kts 64°
2026-04-17 05:08 67.22236 50.44346 34940 ft 457 kts 65°
2026-04-17 05:08 67.24721 50.59514 34914 ft 460 kts 65°
2026-04-17 05:09 67.27206 50.74805 34921 ft 461 kts 65°
2026-04-17 05:09 67.29684 50.90158 34918 ft 462 kts 65°
2026-04-17 05:10 67.32158 51.05417 34919 ft 462 kts 65°
2026-04-17 05:10 67.34695 51.20788 34920 ft 462 kts 64°
2026-04-17 05:11 67.37212 51.36152 34926 ft 461 kts 65°
2026-04-17 05:11 67.39682 51.51415 34921 ft 461 kts 65°
2026-04-17 05:12 67.42145 51.66772 34928 ft 459 kts 65°
2026-04-17 05:12 67.44589 51.82140 34928 ft 458 kts 65°
2026-04-17 05:13 67.47019 51.97520 34928 ft 457 kts 65°
2026-04-17 05:13 67.49397 52.12877 34939 ft 456 kts 66°
2026-04-17 05:14 67.51693 52.28223 34939 ft 456 kts 66°
2026-04-17 05:14 67.53987 52.43677 34937 ft 455 kts 66°
2026-04-17 05:15 67.56272 52.59156 34944 ft 455 kts 66°
2026-04-17 05:15 67.58532 52.74576 34950 ft 456 kts 67°
2026-04-17 05:16 67.60791 52.90119 34950 ft 456 kts 67°
2026-04-17 05:16 67.63050 53.05686 34963 ft 457 kts 64°
2026-04-17 05:17 67.66278 53.19880 34963 ft 452 kts 50°
2026-04-17 05:17 67.70231 53.32793 34959 ft 453 kts 49°
2026-04-17 05:18 67.74182 53.45751 34965 ft 453 kts 50°
2026-04-17 05:18 67.78083 53.58836 34974 ft 453 kts 50°
2026-04-17 05:19 67.81952 53.71972 34987 ft 454 kts 50°
2026-04-17 05:19 67.85797 53.85112 34987 ft 455 kts 50°
2026-04-17 05:20 67.89678 53.98438 34975 ft 455 kts 50°
2026-04-17 05:20 67.93520 54.11733 34990 ft 453 kts 50°
2026-04-17 05:21 67.97319 54.25069 34997 ft 452 kts 51°
2026-04-17 05:21 68.01103 54.38453 35000 ft 450 kts 51°
2026-04-17 05:22 68.04864 54.51822 35014 ft 450 kts 51°
2026-04-17 05:22 68.08581 54.65117 35010 ft 449 kts 51°
2026-04-17 05:23 68.12315 54.78547 35025 ft 448 kts 51°
2026-04-17 05:23 68.16027 54.91975 35025 ft 448 kts 51°
2026-04-17 05:24 68.19733 55.05462 35030 ft 448 kts 51°
2026-04-17 05:24 68.22807 55.16664 35036 ft 447 kts 51°
2026-04-17 05:25 68.26502 55.30179 35038 ft 448 kts 51°
2026-04-17 05:25 68.30188 55.43758 35047 ft 448 kts 51°
2026-04-17 05:26 68.33861 55.57386 35053 ft 448 kts 51°
2026-04-17 05:26 68.37514 55.71039 35061 ft 448 kts 51°
2026-04-17 05:27 68.41144 55.84672 35070 ft 448 kts 52°
2026-04-17 05:27 68.44791 55.98467 35080 ft 449 kts 52°
2026-04-17 05:28 68.48427 56.12300 35086 ft 449 kts 52°
2026-04-17 05:28 68.52062 56.26216 35095 ft 450 kts 52°
2026-04-17 05:29 68.55666 56.40096 35090 ft 451 kts 52°
2026-04-17 05:29 68.59286 56.54136 35106 ft 451 kts 52°
2026-04-17 05:30 68.62890 56.68210 35098 ft 452 kts 52°
2026-04-17 05:30 68.66494 56.82377 35121 ft 452 kts 52°
2026-04-17 05:31 68.70084 56.96568 35119 ft 452 kts 52°
2026-04-17 05:31 68.73644 57.10710 35130 ft 452 kts 52°
2026-04-17 05:32 68.77232 57.24969 35130 ft 451 kts 52°
2026-04-17 05:32 68.80795 57.39236 35138 ft 451 kts 52°
2026-04-17 05:33 68.84341 57.53535 35140 ft 451 kts 52°
2026-04-17 05:33 68.87885 57.67919 35147 ft 451 kts 53°
2026-04-17 05:34 68.91406 57.82289 35155 ft 450 kts 52°
2026-04-17 05:34 68.94977 57.96477 35162 ft 449 kts 52°
2026-04-17 05:35 68.98592 58.10724 35167 ft 449 kts 52°
2026-04-17 05:35 69.02159 58.24927 35174 ft 449 kts 52°
2026-04-17 05:36 69.05720 58.39252 35184 ft 449 kts 52°
2026-04-17 05:36 69.09266 58.53617 35185 ft 448 kts 52°
2026-04-17 05:37 69.12796 58.68021 35195 ft 448 kts 53°
2026-04-17 05:37 69.16300 58.82402 35199 ft 448 kts 53°
2026-04-17 05:38 69.19814 58.96908 35209 ft 448 kts 53°
2026-04-17 05:38 69.23247 59.11614 35206 ft 449 kts 54°
2026-04-17 05:39 69.26615 59.26442 35215 ft 450 kts 54°
2026-04-17 05:39 69.29981 59.41331 35224 ft 450 kts 54°
2026-04-17 05:40 69.33347 59.56266 35221 ft 450 kts 55°
2026-04-17 05:40 69.36707 59.71264 35228 ft 451 kts 55°
2026-04-17 05:41 69.40060 59.86339 35231 ft 451 kts 55°
2026-04-17 05:41 69.43380 60.01371 35232 ft 451 kts 55°
2026-04-17 05:42 69.46697 60.16493 35236 ft 451 kts 55°
2026-04-17 05:42 69.50011 60.31713 35240 ft 451 kts 55°
2026-04-17 05:43 69.53305 60.46935 35241 ft 451 kts 55°
2026-04-17 05:43 69.56595 60.62177 35248 ft 450 kts 55°
2026-04-17 05:44 69.59883 60.77468 35248 ft 450 kts 55°
2026-04-17 05:44 69.63136 60.92725 35257 ft 450 kts 56°
2026-04-17 05:45 69.66388 61.08092 35264 ft 449 kts 56°
2026-04-17 05:45 69.69602 61.23395 35266 ft 449 kts 56°
2026-04-17 05:46 69.72823 61.38835 35276 ft 448 kts 56°
2026-04-17 05:46 69.76002 61.54317 35275 ft 449 kts 59°
2026-04-17 05:47 69.78295 61.71208 35289 ft 453 kts 68°
2026-04-17 05:47 69.80238 61.88579 35290 ft 453 kts 69°
2026-04-17 05:48 69.82162 62.05853 35292 ft 453 kts 69°
2026-04-17 05:48 69.84116 62.23258 35295 ft 453 kts 68°
2026-04-17 05:49 69.86062 62.40616 35300 ft 453 kts 68°
2026-04-17 05:49 69.87987 62.57948 35303 ft 453 kts 69°
2026-04-17 05:50 69.89903 62.75396 35307 ft 454 kts 69°
2026-04-17 05:50 69.91806 62.92915 35307 ft 454 kts 69°
2026-04-17 05:51 69.93694 63.10500 35313 ft 455 kts 69°
2026-04-17 05:51 69.95567 63.28131 35318 ft 455 kts 69°
2026-04-17 05:52 69.97411 63.45693 35316 ft 455 kts 69°
2026-04-17 05:52 69.99252 63.63422 35317 ft 456 kts 70°
2026-04-17 05:53 70.01063 63.81056 35326 ft 456 kts 70°
2026-04-17 05:53 70.02870 63.98857 35320 ft 456 kts 70°
2026-04-17 05:54 70.04653 64.16627 35333 ft 455 kts 70°
2026-04-17 05:54 70.06426 64.34500 35327 ft 455 kts 70°
2026-04-17 05:55 70.08164 64.52242 35331 ft 455 kts 70°
2026-04-17 05:55 70.09893 64.70090 35336 ft 455 kts 71°
2026-04-17 05:56 70.11607 64.88000 35335 ft 455 kts 71°
2026-04-17 05:56 70.13297 65.05880 35340 ft 454 kts 71°
2026-04-17 05:57 70.14972 65.23818 35341 ft 454 kts 71°
2026-04-17 05:57 70.16628 65.41768 35343 ft 454 kts 71°
2026-04-17 05:58 70.18263 65.59724 35347 ft 454 kts 71°
2026-04-17 05:59 70.20677 65.86640 35349 ft 454 kts 72°
2026-04-17 05:59 70.22274 66.04726 35352 ft 454 kts 72°
2026-04-17 06:00 70.23779 66.22853 35350 ft 455 kts 73°
2026-04-17 06:00 70.25233 66.41059 35354 ft 455 kts 73°
2026-04-17 06:01 70.26669 66.59230 35350 ft 456 kts 73°
2026-04-17 06:01 70.28104 66.77545 35354 ft 456 kts 73°
2026-04-17 06:02 70.29522 66.95872 35367 ft 456 kts 73°
2026-04-17 06:02 70.30923 67.14240 35354 ft 457 kts 73°
2026-04-17 06:03 70.32299 67.32563 35355 ft 457 kts 74°
2026-04-17 06:03 70.33668 67.51059 35356 ft 458 kts 74°
2026-04-17 06:04 70.35014 67.69538 35361 ft 458 kts 74°
2026-04-17 06:04 70.36345 67.88091 35360 ft 458 kts 75°
2026-04-17 06:05 70.37644 68.06482 35363 ft 458 kts 75°
2026-04-17 06:05 70.38940 68.25089 35360 ft 458 kts 75°
2026-04-17 06:06 70.40236 68.43642 35365 ft 457 kts 74°
2026-04-17 06:06 70.41602 68.62146 35357 ft 457 kts 74°
2026-04-17 06:07 70.42958 68.80593 35360 ft 457 kts 74°
2026-04-17 06:07 70.44296 68.99190 35360 ft 457 kts 74°
2026-04-17 06:08 70.45603 69.17767 35362 ft 457 kts 75°
2026-04-17 06:08 70.46889 69.36375 35360 ft 457 kts 75°
2026-04-17 06:09 70.48156 69.55003 35358 ft 457 kts 75°
2026-04-17 06:09 70.49394 69.73512 35359 ft 457 kts 75°
2026-04-17 06:10 70.50621 69.92143 35355 ft 457 kts 75°
2026-04-17 06:10 70.51832 70.10858 35356 ft 457 kts 75°
2026-04-17 06:11 70.53020 70.29538 35348 ft 457 kts 76°
2026-04-17 06:11 70.53998 70.45145 35352 ft 457 kts 76°
2026-04-17 06:12 70.55154 70.63915 35354 ft 457 kts 76°
2026-04-17 06:12 70.56470 70.85688 35351 ft 457 kts 76°
2026-04-17 06:13 70.57584 71.04498 35349 ft 457 kts 76°
2026-04-17 06:13 70.58495 71.20145 35343 ft 457 kts 77°
2026-04-17 06:14 70.59579 71.39071 35344 ft 457 kts 77°
2026-04-17 06:14 70.60632 71.57833 35342 ft 458 kts 77°
2026-04-17 06:15 70.61675 71.76783 35342 ft 458 kts 77°
2026-04-17 06:15 70.62697 71.95724 35341 ft 458 kts 77°
2026-04-17 06:16 70.63697 72.14631 35335 ft 458 kts 78°
2026-04-17 06:16 70.64681 72.33637 35332 ft 458 kts 78°
2026-04-17 06:17 70.65643 72.52599 35336 ft 458 kts 78°
2026-04-17 06:17 70.66586 72.71607 35342 ft 458 kts 78°
2026-04-17 06:18 70.67505 72.90536 35343 ft 458 kts 78°
2026-04-17 06:18 70.68410 73.09612 35343 ft 458 kts 78°
2026-04-17 06:19 70.69295 73.28685 35342 ft 458 kts 79°
2026-04-17 06:19 70.70155 73.47682 35341 ft 458 kts 79°
2026-04-17 06:20 70.71001 73.66793 35338 ft 458 kts 79°
2026-04-17 06:20 70.71825 73.85906 35340 ft 458 kts 79°
2026-04-17 06:21 70.72631 74.05046 35341 ft 458 kts 80°
2026-04-17 06:21 70.73416 74.24192 35338 ft 458 kts 80°
2026-04-17 06:22 70.74176 74.43233 35336 ft 458 kts 80°
2026-04-17 06:22 70.74923 74.62439 35337 ft 458 kts 80°
2026-04-17 06:23 70.75650 74.81666 35343 ft 459 kts 81°
2026-04-17 06:23 70.76353 75.00805 35335 ft 459 kts 81°
2026-04-17 06:24 70.77043 75.20153 35332 ft 459 kts 81°
2026-04-17 06:24 70.77706 75.39320 35333 ft 459 kts 81°
2026-04-17 06:25 70.78352 75.58615 35329 ft 459 kts 81°
2026-04-17 06:25 70.78978 75.77894 35333 ft 459 kts 82°
2026-04-17 06:26 70.79585 75.97249 35322 ft 459 kts 82°
2026-04-17 06:26 70.80167 76.16448 35328 ft 459 kts 82°
2026-04-17 06:27 70.80734 76.35825 35322 ft 459 kts 82°
2026-04-17 06:27 70.81280 76.55221 35324 ft 459 kts 83°
2026-04-17 06:28 70.81805 76.74536 35320 ft 459 kts 83°
2026-04-17 06:28 70.82307 76.93817 35317 ft 459 kts 83°
2026-04-17 06:29 70.82791 77.13177 35319 ft 459 kts 83°
2026-04-17 06:29 70.83256 77.32582 35317 ft 459 kts 83°
2026-04-17 06:30 70.83699 77.51944 35317 ft 459 kts 84°
2026-04-17 06:30 70.84123 77.71350 35321 ft 459 kts 84°
2026-04-17 06:31 70.84523 77.90636 35313 ft 459 kts 84°
2026-04-17 06:31 70.84906 78.10021 35302 ft 459 kts 84°
2026-04-17 06:32 70.85268 78.29491 35303 ft 459 kts 84°
2026-04-17 06:32 70.85613 78.48925 35299 ft 459 kts 85°
2026-04-17 06:33 70.85930 78.68268 35296 ft 459 kts 85°
2026-04-17 06:33 70.86207 78.87762 35296 ft 460 kts 85°
2026-04-17 06:34 70.86461 79.07249 35298 ft 460 kts 85°
2026-04-17 06:34 70.86698 79.26792 35293 ft 460 kts 86°
2026-04-17 06:35 70.86913 79.46169 35289 ft 460 kts 86°
2026-04-17 06:35 70.87111 79.65722 35291 ft 461 kts 86°
2026-04-17 06:36 70.87288 79.85293 35284 ft 461 kts 86°
2026-04-17 06:36 70.87444 80.04852 35284 ft 461 kts 86°
2026-04-17 06:37 70.87578 80.24296 35280 ft 461 kts 87°
2026-04-17 06:37 70.87693 80.43836 35283 ft 461 kts 87°
2026-04-17 06:38 70.87788 80.63442 35278 ft 461 kts 87°
2026-04-17 06:38 70.87861 80.83001 35272 ft 461 kts 88°
2026-04-17 06:39 70.87914 81.02563 35272 ft 461 kts 88°
2026-04-17 06:39 70.87946 81.22126 35273 ft 461 kts 88°
2026-04-17 06:40 70.87957 81.41594 35267 ft 461 kts 88°
2026-04-17 06:40 70.87948 81.61158 35264 ft 461 kts 88°
2026-04-17 06:41 70.87918 81.80724 35259 ft 461 kts 89°
2026-04-17 06:41 70.87867 82.00296 35262 ft 461 kts 89°
2026-04-17 06:42 70.87797 82.19759 35259 ft 461 kts 89°
2026-04-17 06:42 70.87705 82.39335 35256 ft 461 kts 89°
2026-04-17 06:43 70.87593 82.58889 35252 ft 460 kts 89°
2026-04-17 06:43 70.87460 82.78427 35249 ft 460 kts 90°
2026-04-17 06:44 70.87308 82.97842 35248 ft 461 kts 90°
2026-04-17 06:44 70.87134 83.17374 35244 ft 460 kts 90°
2026-04-17 06:45 70.86941 83.36714 35239 ft 460 kts 90°
2026-04-17 06:45 70.86723 83.56438 35241 ft 460 kts 90°
2026-04-17 06:46 70.86488 83.75936 35240 ft 460 kts 91°
2026-04-17 06:46 70.86232 83.95376 35234 ft 460 kts 91°
2026-04-17 06:47 70.85957 84.14759 35236 ft 460 kts 91°
2026-04-17 06:47 70.85660 84.34244 35232 ft 460 kts 91°
2026-04-17 06:48 70.85342 84.53736 35229 ft 460 kts 91°
2026-04-17 06:48 70.85004 84.73175 35227 ft 460 kts 91°
2026-04-17 06:49 70.84646 84.92634 35229 ft 460 kts 92°
2026-04-17 06:49 70.84267 85.12087 35224 ft 460 kts 92°
2026-04-17 06:50 70.83869 85.31432 35214 ft 460 kts 92°
2026-04-17 06:50 70.83450 85.50871 35205 ft 460 kts 92°
2026-04-17 06:51 70.83009 85.70291 35202 ft 460 kts 93°
2026-04-17 06:51 70.82548 85.89738 35197 ft 460 kts 93°
2026-04-17 06:52 70.82070 86.09041 35189 ft 460 kts 93°
2026-04-17 06:52 70.81565 86.28561 35187 ft 460 kts 93°
2026-04-17 06:53 70.81047 86.47791 35181 ft 459 kts 94°
2026-04-17 06:53 70.80506 86.67137 35178 ft 459 kts 94°
2026-04-17 06:54 70.79944 86.86503 35175 ft 459 kts 94°
2026-04-17 06:54 70.79363 87.05818 35171 ft 459 kts 94°
2026-04-17 06:55 70.78766 87.24987 35170 ft 459 kts 94°
2026-04-17 06:55 70.78144 87.44269 35165 ft 458 kts 95°
2026-04-17 06:56 70.77504 87.63504 35163 ft 458 kts 95°
2026-04-17 06:56 70.76843 87.82729 35163 ft 458 kts 95°
2026-04-17 06:57 70.76162 88.01968 35164 ft 458 kts 95°
2026-04-17 06:57 70.75462 88.21162 35166 ft 458 kts 95°
2026-04-17 06:58 70.74745 88.40249 35169 ft 458 kts 96°
2026-04-17 06:58 70.74003 88.59439 35170 ft 458 kts 96°
2026-04-17 06:59 70.73241 88.78629 35170 ft 459 kts 96°
2026-04-17 06:59 70.72460 88.97799 35171 ft 459 kts 96°
2026-04-17 07:00 70.71659 89.16945 35174 ft 459 kts 96°
2026-04-17 07:00 70.70976 89.32895 35176 ft 459 kts 97°
2026-04-17 07:01 70.70137 89.52032 35167 ft 459 kts 97°
2026-04-17 07:01 70.69278 89.71164 35176 ft 459 kts 97°
2026-04-17 07:02 70.68403 89.90203 35173 ft 460 kts 97°
2026-04-17 07:02 70.67505 90.09294 35169 ft 460 kts 97°
2026-04-17 07:03 70.66582 90.28457 35169 ft 460 kts 98°
2026-04-17 07:03 70.65645 90.47488 35168 ft 460 kts 98°
2026-04-17 07:04 70.64685 90.66574 35168 ft 460 kts 98°
2026-04-17 07:04 70.63704 90.85657 35165 ft 461 kts 98°
2026-04-17 07:05 70.62703 91.04731 35170 ft 461 kts 98°
2026-04-17 07:05 70.61679 91.23825 35162 ft 461 kts 99°
2026-04-17 07:06 70.60638 91.42873 35161 ft 461 kts 99°
2026-04-17 07:06 70.59582 91.61787 35163 ft 461 kts 99°
2026-04-17 07:07 70.58502 91.80791 35167 ft 461 kts 99°
2026-04-17 07:07 70.57398 91.99823 35165 ft 462 kts 99°
2026-04-17 07:08 70.56277 92.18794 35162 ft 462 kts 100°
2026-04-17 07:08 70.55132 92.37818 35169 ft 462 kts 100°
2026-04-17 07:09 70.53976 92.56669 35169 ft 462 kts 100°
2026-04-17 07:09 70.52792 92.75641 35169 ft 463 kts 100°
2026-04-17 07:10 70.51588 92.94585 35172 ft 463 kts 101°
2026-04-17 07:10 70.50363 93.13545 35166 ft 463 kts 101°
2026-04-17 07:11 70.49119 93.32451 35175 ft 463 kts 101°
2026-04-17 07:11 70.47855 93.51360 35176 ft 463 kts 101°
2026-04-17 07:12 70.46576 93.70164 35181 ft 463 kts 101°
2026-04-17 07:12 70.45273 93.89015 35178 ft 463 kts 102°
2026-04-17 07:13 70.43956 94.07765 35180 ft 464 kts 102°
2026-04-17 07:13 70.42609 94.26630 35180 ft 464 kts 102°
2026-04-17 07:14 70.41246 94.45427 35176 ft 464 kts 102°
2026-04-17 07:14 70.39863 94.64210 35176 ft 464 kts 102°
2026-04-17 07:15 70.38462 94.82954 35180 ft 464 kts 103°
2026-04-17 07:15 70.37050 95.01589 35170 ft 464 kts 103°
2026-04-17 07:16 70.35605 95.20312 35176 ft 464 kts 103°
2026-04-17 07:16 70.34144 95.38991 35168 ft 464 kts 103°
2026-04-17 07:17 70.32670 95.57556 35170 ft 464 kts 103°
2026-04-17 07:17 70.30414 95.85495 35172 ft 464 kts 104°
2026-04-17 07:18 70.28885 96.04085 35166 ft 464 kts 104°
2026-04-17 07:18 70.27336 96.22660 35170 ft 464 kts 104°
2026-04-17 07:19 70.25768 96.41218 35170 ft 464 kts 104°
2026-04-17 07:19 70.24185 96.59685 35167 ft 464 kts 104°
2026-04-17 07:20 70.22587 96.78090 35171 ft 464 kts 105°
2026-04-17 07:20 70.20961 96.96570 35165 ft 465 kts 105°
2026-04-17 07:21 70.19318 97.14990 35169 ft 464 kts 105°
2026-04-17 07:21 70.17656 97.33392 35171 ft 464 kts 105°
2026-04-17 07:22 70.15977 97.51737 35177 ft 464 kts 105°
2026-04-17 07:22 70.14287 97.69974 35186 ft 464 kts 106°
2026-04-17 07:23 70.12570 97.88273 35185 ft 464 kts 106°
2026-04-17 07:23 70.10835 98.06533 35191 ft 463 kts 106°
2026-04-17 07:24 70.09084 98.24729 35195 ft 463 kts 106°
2026-04-17 07:24 70.07323 98.42814 35200 ft 463 kts 107°
2026-04-17 07:25 70.05534 98.60963 35207 ft 463 kts 107°
2026-04-17 07:25 70.03727 98.79075 35204 ft 464 kts 107°
2026-04-17 07:26 70.01899 98.97191 35207 ft 464 kts 107°
2026-04-17 07:26 70.00053 99.15259 35211 ft 464 kts 107°
2026-04-17 07:27 69.98185 99.33338 35212 ft 465 kts 107°
2026-04-17 07:27 69.96301 99.51359 35216 ft 464 kts 108°
2026-04-17 07:28 69.94405 99.69297 35215 ft 465 kts 108°
2026-04-17 07:28 69.92482 99.87282 35218 ft 465 kts 108°
2026-04-17 07:29 69.90539 100.05248 35214 ft 465 kts 108°
2026-04-17 07:29 69.88591 100.23061 35219 ft 465 kts 108°
2026-04-17 07:30 69.86603 100.41038 35221 ft 465 kts 108°
2026-04-17 07:30 69.84620 100.58780 35219 ft 465 kts 109°
2026-04-17 07:31 69.82604 100.76616 35217 ft 465 kts 109°
2026-04-17 07:31 69.80570 100.94421 35220 ft 465 kts 109°
2026-04-17 07:32 69.78535 101.12050 35219 ft 465 kts 109°
2026-04-17 07:32 69.76467 101.29777 35221 ft 465 kts 109°
2026-04-17 07:33 69.74381 101.47464 35217 ft 465 kts 109°
2026-04-17 07:33 69.72283 101.65079 35211 ft 465 kts 110°
2026-04-17 07:34 69.70161 101.82699 35208 ft 465 kts 110°
2026-04-17 07:34 69.68023 102.00284 35205 ft 465 kts 110°
2026-04-17 07:35 69.65873 102.17782 35202 ft 465 kts 110°
2026-04-17 07:35 69.63712 102.35189 35195 ft 465 kts 110°
2026-04-17 07:36 69.61523 102.52649 35193 ft 465 kts 111°
2026-04-17 07:36 69.59315 102.70092 35193 ft 465 kts 111°
2026-04-17 07:37 69.57103 102.87388 35184 ft 465 kts 111°
2026-04-17 07:37 69.54865 103.04719 35189 ft 464 kts 111°
2026-04-17 07:38 69.52602 103.22076 35181 ft 464 kts 111°
2026-04-17 07:38 69.50343 103.39232 35182 ft 464 kts 111°
2026-04-17 07:39 69.48051 103.56480 35189 ft 464 kts 112°
2026-04-17 07:39 69.45744 103.73665 35182 ft 464 kts 112°
2026-04-17 07:40 69.43419 103.90829 35174 ft 464 kts 112°
2026-04-17 07:40 69.41079 104.07936 35181 ft 464 kts 112°
2026-04-17 07:41 69.38733 104.24933 35176 ft 464 kts 112°
2026-04-17 07:41 69.36360 104.41970 35182 ft 464 kts 112°
2026-04-17 07:42 69.33971 104.58957 35180 ft 464 kts 113°
2026-04-17 07:42 69.31578 104.75820 35184 ft 464 kts 113°
2026-04-17 07:43 69.29157 104.92732 35183 ft 464 kts 113°
2026-04-17 07:43 69.26721 105.09597 35187 ft 464 kts 113°
2026-04-17 07:44 69.24262 105.26464 35193 ft 464 kts 114°
2026-04-17 07:44 69.21795 105.43236 35188 ft 464 kts 114°
2026-04-17 07:45 69.19318 105.59924 35191 ft 464 kts 114°
2026-04-17 07:45 69.16820 105.76614 35196 ft 463 kts 114°
2026-04-17 07:46 69.14297 105.93324 35193 ft 463 kts 114°
2026-04-17 07:46 69.11780 106.09846 35193 ft 463 kts 114°
2026-04-17 07:47 69.09233 106.26422 35196 ft 463 kts 115°
2026-04-17 07:47 69.06675 106.42954 35198 ft 463 kts 115°
2026-04-17 07:48 69.03837 106.59169 35407 ft 462 kts 124°
2026-04-17 07:48 69.02057 106.66607 35575 ft 461 kts 126°
2026-04-17 07:48 69.00236 106.73961 35726 ft 460 kts 126°
2026-04-17 07:49 68.98426 106.81193 35830 ft 461 kts 126°
2026-04-17 07:49 68.96588 106.88529 35952 ft 461 kts 126°
2026-04-17 07:49 68.94755 106.95868 36115 ft 460 kts 126°
2026-04-17 07:49 68.92941 107.03151 36322 ft 458 kts 126°
2026-04-17 07:50 68.91129 107.10436 36544 ft 456 kts 126°
2026-04-17 07:50 68.89326 107.17675 36789 ft 454 kts 126°
2026-04-17 07:50 68.87533 107.24864 37044 ft 452 kts 126°
2026-04-17 07:50 68.85747 107.32001 37200 ft 451 kts 126°
2026-04-17 07:51 68.82773 107.43843 37184 ft 449 kts 126°
2026-04-17 07:51 68.79205 107.57953 37184 ft 446 kts 126°
2026-04-17 07:52 68.75644 107.71938 37186 ft 444 kts 127°
2026-04-17 07:52 68.72109 107.85731 37191 ft 442 kts 127°
2026-04-17 07:53 68.68561 107.99492 37186 ft 441 kts 127°
2026-04-17 07:53 68.64994 108.13242 37187 ft 442 kts 127°
2026-04-17 07:54 68.61413 108.26953 37189 ft 443 kts 127°
2026-04-17 07:54 68.57803 108.40693 37186 ft 444 kts 127°
2026-04-17 07:55 68.54196 108.54335 37189 ft 446 kts 127°
2026-04-17 07:55 68.50540 108.68074 37187 ft 447 kts 127°
2026-04-17 07:56 68.46862 108.81809 37190 ft 449 kts 128°
2026-04-17 07:56 68.43162 108.95542 37183 ft 450 kts 128°
2026-04-17 07:57 68.39470 109.09157 37182 ft 450 kts 128°
2026-04-17 07:57 68.35744 109.22814 37187 ft 451 kts 128°
2026-04-17 07:58 68.32006 109.36429 37180 ft 450 kts 128°
2026-04-17 07:58 68.28263 109.49975 37188 ft 450 kts 128°
2026-04-17 07:59 68.24511 109.63468 37183 ft 449 kts 128°
2026-04-17 07:59 68.20749 109.76920 37187 ft 448 kts 128°
2026-04-17 08:00 68.17006 109.90216 37182 ft 447 kts 129°
2026-04-17 08:00 68.13240 110.03516 37193 ft 446 kts 129°
2026-04-17 08:01 68.09462 110.16775 37176 ft 446 kts 129°
2026-04-17 08:01 68.05691 110.29929 37180 ft 445 kts 129°
2026-04-17 08:02 68.01937 110.42947 37184 ft 445 kts 129°
2026-04-17 08:02 67.98152 110.55991 37178 ft 444 kts 129°
2026-04-17 08:03 67.94359 110.68988 37172 ft 444 kts 129°
2026-04-17 08:03 67.90554 110.81948 37165 ft 445 kts 129°
2026-04-17 08:04 67.86716 110.94941 37163 ft 445 kts 130°
2026-04-17 08:04 67.82913 111.07741 37159 ft 445 kts 130°
2026-04-17 08:05 67.79073 111.20590 37164 ft 446 kts 130°
2026-04-17 08:05 67.75213 111.33428 37179 ft 446 kts 130°
2026-04-17 08:06 67.71333 111.46258 37163 ft 447 kts 130°
2026-04-17 08:06 67.67444 111.59039 37160 ft 447 kts 130°
2026-04-17 08:07 67.63558 111.71741 37142 ft 448 kts 130°
2026-04-17 08:07 67.59643 111.84459 37159 ft 447 kts 130°
2026-04-17 08:08 67.55721 111.97127 37159 ft 447 kts 130°
2026-04-17 08:08 67.51798 112.09724 37155 ft 447 kts 131°
2026-04-17 08:09 67.47878 112.22239 37153 ft 447 kts 131°
2026-04-17 08:09 67.43923 112.34793 37155 ft 447 kts 131°
2026-04-17 08:10 67.39972 112.47260 37147 ft 447 kts 131°
2026-04-17 08:10 67.36010 112.59694 37156 ft 446 kts 131°
2026-04-17 08:11 67.32058 112.72026 37150 ft 446 kts 131°
2026-04-17 08:11 67.28080 112.84367 37155 ft 446 kts 131°
2026-04-17 08:12 67.24086 112.96686 37156 ft 446 kts 131°
2026-04-17 08:12 67.20089 113.08945 37158 ft 446 kts 131°
2026-04-17 08:13 67.16082 113.21164 37157 ft 446 kts 132°
2026-04-17 08:14 67.10065 113.39389 37160 ft 445 kts 132°
2026-04-17 08:14 67.06066 113.51415 37168 ft 445 kts 132°
2026-04-17 08:15 67.02037 113.63463 37169 ft 445 kts 132°
2026-04-17 08:15 66.97997 113.75478 37171 ft 445 kts 132°
2026-04-17 08:16 66.93959 113.87422 37168 ft 445 kts 133°
2026-04-17 08:16 66.89897 113.99367 37175 ft 445 kts 133°
2026-04-17 08:17 66.85850 114.11208 37178 ft 445 kts 133°
2026-04-17 08:17 66.81769 114.23078 37177 ft 446 kts 133°
2026-04-17 08:18 66.77674 114.34924 37180 ft 446 kts 133°
2026-04-17 08:18 66.73577 114.46712 37184 ft 446 kts 133°
2026-04-17 08:19 66.69487 114.58415 37187 ft 447 kts 133°
2026-04-17 08:19 66.65356 114.70174 37187 ft 447 kts 133°
2026-04-17 08:20 66.61217 114.81889 37190 ft 447 kts 133°
2026-04-17 08:20 66.57074 114.93559 37191 ft 447 kts 134°
2026-04-17 08:21 66.52941 115.05129 37193 ft 447 kts 134°
2026-04-17 08:21 66.48775 115.16722 37196 ft 447 kts 134°
2026-04-17 08:22 66.44609 115.28258 37196 ft 446 kts 134°
2026-04-17 08:22 66.40430 115.39763 37195 ft 446 kts 134°
2026-04-17 08:23 66.36253 115.51204 37194 ft 446 kts 134°
2026-04-17 08:23 66.32093 115.62542 37197 ft 445 kts 134°
2026-04-17 08:24 66.27908 115.73884 37195 ft 445 kts 134°
2026-04-17 08:24 66.23711 115.85203 37192 ft 445 kts 134°
2026-04-17 08:25 66.19507 115.96479 37189 ft 445 kts 135°
2026-04-17 08:25 66.15298 116.07709 37192 ft 445 kts 135°
2026-04-17 08:26 66.11081 116.18903 37190 ft 445 kts 135°
2026-04-17 08:26 66.06885 116.29980 37191 ft 445 kts 135°
2026-04-17 08:27 66.02644 116.41121 37183 ft 445 kts 135°
2026-04-17 08:27 65.98402 116.52206 37200 ft 445 kts 135°
2026-04-17 08:28 65.94136 116.63293 37190 ft 446 kts 135°
2026-04-17 08:28 65.89872 116.74322 37183 ft 446 kts 135°
2026-04-17 08:29 65.85598 116.85317 37184 ft 446 kts 135°
2026-04-17 08:29 65.81328 116.96244 37175 ft 446 kts 135°
2026-04-17 08:30 65.77039 117.07165 37174 ft 446 kts 136°
2026-04-17 08:30 65.72728 117.18086 37181 ft 446 kts 136°
2026-04-17 08:31 65.68417 117.28951 37172 ft 446 kts 136°
2026-04-17 08:31 65.64117 117.39733 37171 ft 446 kts 136°
2026-04-17 08:32 65.59787 117.50542 37173 ft 446 kts 136°
2026-04-17 08:32 65.55484 117.61345 37163 ft 446 kts 135°
2026-04-17 08:33 65.51219 117.72214 37170 ft 446 kts 135°
2026-04-17 08:33 65.46944 117.83054 37165 ft 445 kts 135°
2026-04-17 08:34 65.42689 117.93760 37162 ft 445 kts 136°
2026-04-17 08:34 65.38399 118.04491 37163 ft 445 kts 136°
2026-04-17 08:35 65.34099 118.15191 37156 ft 446 kts 136°
2026-04-17 08:35 65.29780 118.25888 37156 ft 446 kts 136°
2026-04-17 08:36 65.25467 118.36521 37149 ft 446 kts 136°
2026-04-17 08:36 65.21412 118.47623 37142 ft 449 kts 126°
2026-04-17 08:37 65.18430 118.60804 37142 ft 452 kts 119°
2026-04-17 08:37 65.15592 118.74175 37145 ft 452 kts 119°
2026-04-17 08:38 65.12713 118.87474 37144 ft 452 kts 120°
2026-04-17 08:38 65.09816 119.00633 37143 ft 452 kts 120°
2026-04-17 08:39 65.06885 119.13837 37144 ft 452 kts 120°
2026-04-17 08:39 65.03944 119.27001 37140 ft 452 kts 120°
2026-04-17 08:40 65.00984 119.40172 37131 ft 452 kts 120°
2026-04-17 08:40 64.98519 119.51083 37136 ft 452 kts 120°
2026-04-17 08:41 64.95542 119.64188 37133 ft 452 kts 120°
2026-04-17 08:41 64.92558 119.77245 37133 ft 451 kts 121°
2026-04-17 08:42 64.89573 119.90237 37131 ft 451 kts 121°
2026-04-17 08:42 64.86568 120.03211 37130 ft 451 kts 121°
2026-04-17 08:43 64.83553 120.16147 37122 ft 451 kts 121°
2026-04-17 08:43 64.80547 120.28968 37119 ft 450 kts 121°
2026-04-17 08:44 64.77514 120.41834 37115 ft 451 kts 121°
2026-04-17 08:44 64.74481 120.54624 37117 ft 451 kts 121°
2026-04-17 08:45 64.71426 120.67434 37114 ft 451 kts 121°
2026-04-17 08:45 64.68357 120.80217 37110 ft 451 kts 121°
2026-04-17 08:46 64.65276 120.92979 37109 ft 451 kts 122°
2026-04-17 08:46 64.62202 121.05647 37108 ft 451 kts 122°
2026-04-17 08:47 64.59108 121.18328 37104 ft 450 kts 122°
2026-04-17 08:47 64.55995 121.31001 37103 ft 450 kts 122°
2026-04-17 08:48 64.52870 121.43653 37100 ft 450 kts 122°
2026-04-17 08:48 64.49744 121.56239 37096 ft 450 kts 122°
2026-04-17 08:49 64.46623 121.68739 37094 ft 450 kts 122°
2026-04-17 08:49 64.43466 121.81308 37090 ft 450 kts 122°
2026-04-17 08:50 64.40308 121.93810 37089 ft 450 kts 123°
2026-04-17 08:50 64.37139 122.06295 37083 ft 450 kts 123°
2026-04-17 08:51 64.33965 122.18734 37086 ft 450 kts 123°
2026-04-17 08:51 64.30806 122.31066 37081 ft 450 kts 123°
2026-04-17 08:52 64.27634 122.43498 37085 ft 450 kts 122°
2026-04-17 08:52 64.24506 122.55976 37075 ft 450 kts 122°
2026-04-17 08:53 64.21364 122.68435 37069 ft 450 kts 122°
2026-04-17 08:53 64.18204 122.80857 37078 ft 450 kts 123°
2026-04-17 08:54 64.15033 122.93244 37066 ft 450 kts 123°
2026-04-17 08:54 64.11871 123.05514 37063 ft 450 kts 123°
2026-04-17 08:55 64.08680 123.17830 37058 ft 449 kts 123°
2026-04-17 08:55 64.05484 123.30099 37057 ft 449 kts 123°
2026-04-17 08:56 64.02276 123.42348 37059 ft 449 kts 123°
2026-04-17 08:56 63.99056 123.54576 37053 ft 449 kts 123°
2026-04-17 08:57 63.95850 123.66681 37047 ft 449 kts 123°
2026-04-17 08:57 63.92617 123.78825 37044 ft 449 kts 123°
2026-04-17 08:58 63.89371 123.90950 37039 ft 449 kts 123°
2026-04-17 08:58 63.86116 124.03045 37043 ft 448 kts 124°
2026-04-17 08:59 63.82875 124.15022 37041 ft 448 kts 124°
2026-04-17 08:59 63.79600 124.27056 37038 ft 448 kts 124°
2026-04-17 09:00 63.76320 124.39050 37032 ft 448 kts 124°
2026-04-17 09:00 63.73025 124.51031 37037 ft 448 kts 124°
2026-04-17 09:01 63.69720 124.62984 37024 ft 448 kts 124°
2026-04-17 09:01 63.66426 124.74844 37029 ft 448 kts 124°
2026-04-17 09:02 63.63106 124.86727 37036 ft 448 kts 124°
2026-04-17 09:02 63.59772 124.98597 37023 ft 448 kts 124°
2026-04-17 09:03 63.56431 125.10425 37022 ft 448 kts 124°
2026-04-17 09:03 63.53082 125.22224 37020 ft 448 kts 124°
2026-04-17 09:04 63.49739 125.33939 37017 ft 448 kts 125°
2026-04-17 09:04 63.46369 125.45689 37010 ft 448 kts 125°
2026-04-17 09:05 63.42987 125.57419 37011 ft 448 kts 125°
2026-04-17 09:05 63.39598 125.69113 37011 ft 449 kts 125°
2026-04-17 09:06 63.36197 125.80789 37014 ft 449 kts 125°
2026-04-17 09:06 63.32806 125.92373 37001 ft 449 kts 125°
2026-04-17 09:07 63.29362 126.04066 36451 ft 454 kts 126°
2026-04-17 09:07 63.27642 126.09890 35927 ft 448 kts 126°
2026-04-17 09:07 63.25929 126.15677 35258 ft 448 kts 126°
2026-04-17 09:07 63.24213 126.21457 34609 ft 447 kts 126°
2026-04-17 09:08 63.22505 126.27194 34129 ft 442 kts 126°
2026-04-17 09:08 63.20823 126.32831 33603 ft 437 kts 126°
2026-04-17 09:08 63.19171 126.38355 33134 ft 431 kts 126°
2026-04-17 09:08 63.17522 126.43857 32691 ft 424 kts 126°
2026-04-17 09:09 63.15903 126.49244 32267 ft 417 kts 126°
2026-04-17 09:09 63.14305 126.54546 31840 ft 411 kts 126°
2026-04-17 09:09 63.12732 126.59756 31612 ft 399 kts 126°
2026-04-17 09:09 63.11214 126.64774 31224 ft 387 kts 126°
2026-04-17 09:10 63.08256 126.74505 29957 ft 376 kts 126°
2026-04-17 09:10 63.06827 126.79190 29256 ft 369 kts 126°
2026-04-17 09:10 63.05401 126.83857 28469 ft 365 kts 126°
2026-04-17 09:11 63.03988 126.88475 27699 ft 361 kts 126°
2026-04-17 09:11 63.02589 126.93035 26965 ft 357 kts 126°
2026-04-17 09:11 63.01199 126.97557 26376 ft 350 kts 126°
2026-04-17 09:11 62.99852 127.01934 25934 ft 341 kts 126°
2026-04-17 09:12 62.98545 127.06173 25562 ft 330 kts 126°
2026-04-17 09:12 62.97272 127.10295 25207 ft 321 kts 126°
2026-04-17 09:12 62.96030 127.14306 24853 ft 315 kts 126°
2026-04-17 09:12 62.94817 127.18212 24511 ft 312 kts 126°
2026-04-17 09:13 62.93584 127.22177 24189 ft 320 kts 126°
2026-04-17 09:13 62.92286 127.26341 23826 ft 337 kts 126°
2026-04-17 09:13 62.90962 127.30594 23402 ft 335 kts 126°
2026-04-17 09:13 62.89664 127.34754 23018 ft 326 kts 126°
2026-04-17 09:14 62.88401 127.38800 22649 ft 317 kts 126°
2026-04-17 09:14 62.87309 127.42941 22316 ft 311 kts 117°
2026-04-17 09:14 62.86437 127.47250 22041 ft 312 kts 116°
2026-04-17 09:14 62.85571 127.51671 21793 ft 326 kts 116°
2026-04-17 09:15 62.84672 127.56282 21534 ft 334 kts 116°
2026-04-17 09:15 62.83759 127.60952 21243 ft 333 kts 116°
2026-04-17 09:15 62.82849 127.65594 20960 ft 329 kts 116°
2026-04-17 09:15 62.81946 127.70166 20691 ft 327 kts 116°
2026-04-17 09:16 62.81044 127.74713 20420 ft 325 kts 116°
2026-04-17 09:16 62.80143 127.79234 20123 ft 319 kts 116°
2026-04-17 09:16 62.79267 127.83621 19782 ft 311 kts 116°
2026-04-17 09:16 62.78416 127.87869 19412 ft 305 kts 116°
2026-04-17 09:17 62.77572 127.92070 19077 ft 300 kts 116°
2026-04-17 09:17 62.76736 127.96216 18733 ft 297 kts 116°
2026-04-17 09:17 62.75902 128.00342 18390 ft 297 kts 116°
2026-04-17 09:17 62.75052 128.04535 18035 ft 310 kts 116°
2026-04-17 09:18 62.74162 128.08912 17625 ft 317 kts 116°
2026-04-17 09:18 62.73277 128.13272 17254 ft 310 kts 115°
2026-04-17 09:18 62.72414 128.17515 16893 ft 302 kts 115°
2026-04-17 09:18 62.71572 128.21648 16552 ft 295 kts 115°
2026-04-17 09:19 62.70742 128.25709 16212 ft 290 kts 115°
2026-04-17 09:19 62.69921 128.29714 15856 ft 288 kts 115°
2026-04-17 09:19 62.69106 128.33686 15533 ft 289 kts 115°
2026-04-17 09:19 62.68264 128.37772 15194 ft 302 kts 115°
2026-04-17 09:20 62.67394 128.41987 14820 ft 305 kts 115°
2026-04-17 09:20 62.66541 128.46120 14453 ft 299 kts 115°
2026-04-17 09:20 62.65696 128.50206 14101 ft 293 kts 115°
2026-04-17 09:20 62.64866 128.54216 13759 ft 287 kts 115°
2026-04-17 09:21 62.64050 128.58145 13389 ft 282 kts 115°
2026-04-17 09:21 62.63242 128.62024 13048 ft 281 kts 115°
2026-04-17 09:21 62.62440 128.65871 12713 ft 280 kts 115°
2026-04-17 09:21 62.61621 128.69788 12388 ft 291 kts 115°
2026-04-17 09:22 62.60770 128.73853 12021 ft 298 kts 115°
2026-04-17 09:22 62.59916 128.77925 11652 ft 293 kts 115°
2026-04-17 09:22 62.59078 128.81915 11288 ft 287 kts 115°
2026-04-17 09:22 62.58256 128.85823 10945 ft 281 kts 115°
2026-04-17 09:23 62.57458 128.89604 10614 ft 277 kts 115°
2026-04-17 09:23 62.56659 128.93383 10361 ft 274 kts 115°
2026-04-17 09:23 62.55873 128.97098 10242 ft 268 kts 115°
2026-04-17 09:23 62.55088 129.00799 10127 ft 272 kts 115°
2026-04-17 09:24 62.54303 129.04492 10007 ft 265 kts 115°
2026-04-17 09:24 62.53547 129.08049 9874 ft 254 kts 115°
2026-04-17 09:24 62.52812 129.11495 9580 ft 250 kts 115°
2026-04-17 09:24 62.52103 129.14817 9366 ft 242 kts 115°
2026-04-17 09:25 62.51408 129.18072 9187 ft 235 kts 115°
2026-04-17 09:25 62.50717 129.21298 8939 ft 237 kts 115°
2026-04-17 09:25 62.50015 129.24570 8687 ft 243 kts 115°
2026-04-17 09:25 62.49285 129.27966 8417 ft 253 kts 115°
2026-04-17 09:26 62.48528 129.31403 8098 ft 252 kts 118°
2026-04-17 09:26 62.47937 129.33570 7779 ft 254 kts 122°
2026-04-17 09:26 62.46893 129.36989 7470 ft 250 kts 123°
2026-04-17 09:27 62.45915 129.40113 7165 ft 246 kts 123°
2026-04-17 09:27 62.44976 129.43117 6899 ft 242 kts 123°
2026-04-17 09:27 62.44038 129.46122 6645 ft 239 kts 123°
2026-04-17 09:27 62.43123 129.49089 6386 ft 236 kts 123°
2026-04-17 09:28 62.42197 129.51985 6123 ft 233 kts 123°
2026-04-17 09:28 62.41303 129.54864 5859 ft 229 kts 122°
2026-04-17 09:28 62.40424 129.57725 5627 ft 228 kts 122°
2026-04-17 09:28 62.39544 129.60603 5397 ft 233 kts 122°
2026-04-17 09:29 62.38638 129.63559 5155 ft 238 kts 122°
2026-04-17 09:29 62.37724 129.66519 4890 ft 241 kts 122°
2026-04-17 09:29 62.37106 129.68535 4728 ft 238 kts 122°
2026-04-17 09:29 62.35918 129.72370 4514 ft 222 kts 121°
2026-04-17 09:30 62.35354 129.74188 4431 ft 211 kts 121°
2026-04-17 09:30 62.34323 129.77537 4230 ft 195 kts 120°
2026-04-17 09:30 62.33561 129.80000 3798 ft 196 kts 121°
2026-04-17 09:30 62.33051 129.81635 3588 ft 193 kts 121°
2026-04-17 09:31 62.32325 129.83961 3383 ft 187 kts 120°
2026-04-17 09:31 62.31611 129.86255 3172 ft 183 kts 120°
2026-04-17 09:31 62.30908 129.88517 2948 ft 182 kts 120°
2026-04-17 09:31 62.30213 129.90741 2861 ft 174 kts 120°
2026-04-17 09:32 62.29548 129.92862 2783 ft 168 kts 120°
2026-04-17 09:32 62.28912 129.94893 2701 ft 160 kts 119°
2026-04-17 09:32 62.28311 129.96811 2632 ft 149 kts 119°
2026-04-17 09:32 62.27571 129.98311 2545 ft 151 kts 151°
2026-04-17 09:33 62.26545 129.98716 2501 ft 152 kts 165°
2026-04-17 09:33 62.25494 129.99058 2417 ft 151 kts 164°
2026-04-17 09:33 62.24455 129.99435 2314 ft 153 kts 166°
2026-04-17 09:33 62.23412 129.99129 2214 ft 161 kts 202°
2026-04-17 09:34 62.22420 129.97868 2163 ft 164 kts 204°
2026-04-17 09:34 62.21433 129.96646 2046 ft 164 kts 207°
2026-04-17 09:34 62.20474 129.95277 2010 ft 167 kts 211°
2026-04-17 09:34 62.19538 129.93825 1990 ft 164 kts 212°
2026-04-17 09:35 62.18625 129.92374 1998 ft 163 kts 212°
2026-04-17 09:35 62.17710 129.90912 1986 ft 164 kts 213°
2026-04-17 09:35 62.16802 129.89459 1909 ft 167 kts 213°
2026-04-17 09:35 62.15876 129.87978 1686 ft 166 kts 213°
2026-04-17 09:36 62.14958 129.86509 1381 ft 163 kts 214°
2026-04-17 09:36 62.14072 129.85111 1141 ft 153 kts 216°
2026-04-17 09:36 62.13229 129.83790 972 ft 149 kts 217°
2026-04-17 09:36 62.12393 129.82456 765 ft 146 kts 219°
2026-04-17 09:37 62.11591 129.81145 625 ft 147 kts 219°
2026-04-17 09:37 62.10788 129.79843 418 ft 146 kts 218°
2026-04-17 09:37 62.10001 129.78593 325 ft 130 kts 220°
2026-04-17 09:37 62.09392 129.77601 328 ft 88 kts 216°
2026-04-17 09:38 62.09029 129.77014 328 ft 44 kts 216°
2026-04-17 09:38 62.08909 129.76827 330 ft 0 kts 217°
2026-04-17 09:38 62.08882 129.76783 326 ft 17 kts 217°
2026-04-17 09:38 62.08745 129.76564 327 ft 31 kts 217°
2026-04-17 09:39 62.08590 129.76316 327 ft 22 kts 217°
2026-04-17 09:39 62.08517 129.76160 329 ft 13 kts 259°
2026-04-17 09:39 62.08551 129.76008 329 ft 8 kts 306°
2026-04-17 09:39 62.08560 129.75983 330 ft 0 kts 306°
2026-04-17 09:40 62.08560 129.75982 329 ft 1 kts 306°
2026-04-17 09:41 62.08575 129.75937 327 ft 8 kts 306°
2026-04-17 09:41 62.08617 129.75818 330 ft 11 kts 305°
2026-04-17 09:41 62.08655 129.75683 330 ft 10 kts 300°
2026-04-17 09:41 62.08691 129.75543 329 ft 11 kts 292°
2026-04-17 09:42 62.08691 129.75382 330 ft 11 kts 268°
2026-04-17 09:42 62.08690 129.75254 327 ft 0 kts 269°
2026-04-17 09:42 62.08690 129.75252 327 ft 1 kts 269°
2026-04-17 09:42 62.08690 129.75221 327 ft 4 kts 269°
2026-04-17 09:43 62.08690 129.75188 329 ft 1 kts 268°